Regional Weather Roundup
Issued by NWS Boston, MA

Home | Current Version | Previous Version | Text Only | Print | Product List | Glossary On
Versions: 1 2 3 4 5 6 7 8 9 10 11 12 13 14 15 16 17 18 19 20 21 22 23 24 25 26 27
000
ASUS41 KBOX 190210
RWRBOX

REGIONAL WEATHER ROUNDUP
NATIONAL WEATHER SERVICE TAUNTON MA
1000 PM EDT FRI APR 18 2014

NOTE:  "FAIR" INDICATES FEW OR NO CLOUDS BELOW 12,000 FEET WITH NO
SIGNIFICANT WEATHER AND/OR OBSTRUCTIONS TO VISIBILITY.  THE FOLLOWING
OBSERVATION LOCATIONS DO NOT REPORT PRESENT WEATHER...PROVINCETOWN...
SMITHFIELD...BLOCK ISLAND...KEENE...AND OXFORD.

MAZALL-190300-
EASTERN MASSACHUSETTS

CITY           SKY/WX    TMP DP  RH WIND       PRES   REMARKS
BOSTON         CLOUDY    37  32  81 S7        30.30F
BEVERLY        CLOUDY    37  32  82 S5        30.28F
LAWRENCE       CLOUDY    36  30  79 S3        30.30F
BEDFORD        CLOUDY    37  33  85 SE5       30.27F
BLUE HILL        N/A     35  31  85 SE7       30.26F WCI  29
NORWOOD        CLOUDY    38  33  82 CALM      30.29F
MARSHFIELD       N/A    N/A N/A N/A MISG        N/A
PLYMOUTH       CLOUDY    36  31  82 CALM      30.29F
TAUNTON        CLOUDY    41  34  76 CALM      30.29F
NEW BEDFORD    CLOUDY    39  34  82 CALM      30.28F
$$

MAZALL-190300-
CAPE COD AND THE ISLANDS

CITY           SKY/WX    TMP DP  RH WIND       PRES   REMARKS
FALMOUTH       CLOUDY    37  36  93 CALM      30.29F
HYANNIS        CLOUDY    39  35  86 E3        30.26F
CHATHAM        CLOUDY    40  37  89 CALM      30.29F
PROVINCETOWN   CLOUDY    37  36  93 MISG      30.31S
NANTUCKET      CLOUDY    38  34  85 N3        30.29F
MARTHAS VNYRD  CLOUDY    38  34  85 CALM      30.29F
$$

MAZALL-190300-
CENTRAL AND WESTERN MASSACHUSETTS

CITY           SKY/WX    TMP DP  RH WIND       PRES   REMARKS
WORCESTER      CLOUDY    38  30  73 SE7       30.25F
FITCHBURG      CLOUDY    41  30  65 SE6       30.27F
ORANGE         CLOUDY    36  31  82 CALM      30.25F
SPRINGFIELD    CLOUDY    40  33  76 S5        30.26S
WESTFIELD      CLOUDY    41  31  67 S6        30.26S
NORTH ADAMS    MOCLDY    38  27  64 CALM      30.23F
PITTSFIELD     CLOUDY    39  27  62 CALM      30.21S
$$

RIZALL-190300-
RHODE ISLAND

CITY           SKY/WX    TMP DP  RH WIND       PRES   REMARKS
PROVIDENCE     CLOUDY    41  34  76 S7        30.30S
NEWPORT        CLOUDY    40  35  83 SW3       30.29S
BLOCK ISLAND   CLOUDY    39  32  75 SW5       30.30R
SMITHFIELD     CLOUDY    39  30  70 S3        30.28F
WESTERLY       CLOUDY    39  34  82 W3        30.31S
$$

CTZALL-190300-
CONNECTICUT

CITY           SKY/WX    TMP DP  RH WIND       PRES   REMARKS
BRADLEY INTL   CLOUDY    44  31  60 S10       30.27S
HARTFORD       CLOUDY    43  31  62 S6        30.29S
BRIDGEPORT     CLOUDY    43  35  73 SW9       30.31S
DANBURY        CLOUDY    41  30  65 S6        30.29S
GROTON         CLOUDY    41  37  86 S8        30.30S
NEW HAVEN      CLOUDY    44  34  67 SW3       30.31R
CHESTER        FAIR      39  32  75 SW6       30.30R
MERIDEN        CLOUDY    41  32  70 S7        30.30R
WILLIMANTIC    CLOUDY    42  31  64 S3        30.29R
OXFORD         CLOUDY    39  28  65 SW3       30.30S
$$

MEZ002-015-021-024-NHZ003-005-008-011-012-014-VTZ005-008-190300-
NORTHERN NEW ENGLAND

CITY           SKY/WX    TMP DP  RH WIND       PRES   REMARKS
PORTLAND ME    PTCLDY    33  28  81 S3        30.28F
BANGOR ME      MOCLDY    34  28  79 SW6       30.27R WCI  29
CONCORD NH     MOCLDY    35  29  78 CALM      30.27F
MANCHESTER NH  CLOUDY    37  30  75 SE5       30.26F
NASHUA NH      MOCLDY    39  31  73 CALM      30.28F
PORTSMOUTH NH  MOCLDY    34  31  87 SE5       30.27F WCI  30
JAFFREY NH     CLOUDY    34  29  82 CALM      30.24F
KEENE NH       CLOUDY    37  27  65 CALM      30.25F
BURLINGTON VT  CLOUDY    47  25  42 S10       30.18S
MT. WASHINGTON PTCLDY    25   5  42 NW41G48     N/A  WCI   5
$$

NYZ052-076-190300-
EASTERN NEW YORK

CITY           SKY/WX    TMP DP  RH WIND       PRES   REMARKS
ALBANY         MOCLDY    45  25  45 S6        30.24R
NEW YORK CITY  CLOUDY    42  31  64 S7        30.30F
$$

ANZALL-190300-
MARINE OBSERVATIONS

STATION/POSITION TIME  TEMP    WIND        PRES    VSBY  WAVE
                       AIR SEA DIR/SP/G                  HT/PER
                 (UTC) (F)     (DEG/KT/KT) (MB)    (MI)  (FT/S)
BOSTON BUOY      0150   39 40  120/  4/  6 1026.2F         7/10
BUZZARDS BAY     0100          240/  5/  5 1026.9F
NANTUCKET SOUND  0150   41 43   90/  4/  6 1025.7F         1/ 5
MASS BAY-STELLWA 0104   38 40  120/  6/  8 1025.1F  1 7/8  7/11
ISLE OF SHOALS   0100   37     150/  5/  6 1025.8F
S OF BLOCK IS    0125      41                N/A           5/11
$$

......................KEY.........................
  SKY/WX - SKY CONDITION/PRESENT WEATHER
  TMP    - TEMPERATURE IN FAHRENHEIT
  DWPT   - DEWPOINT IN FAHRENHEIT
  RH     - RELATIVE HUMIDITY IN PERCENT
  WIND   - DIRECTION AND SPEED IN MPH
  PRES   - MEAN SEA LEVEL PRESSURE IN INCHES OF HG
  WCI    - WIND CHILL INDEX
  VSB    - VISIBILITY IN MILES
  HX     - HEAT INDEX
  TC     - TEMPERATURE IN CELSIUS
  VRB    - VARIABLE WIND DIRECTION
  N/A    - NOT AVAILABLE



USA.gov is the U.S. government's official web portal to all federal, state and local government web resources and services.